STARLINK-34848 (65402 NORAD) Tracking and Keplerian Element Data

This shows tracking and keplerian element data for the satellite.

Feedback or suggestion? Click here.




ElementValue
Catalog65402
NameSTARLINK-34848
Epoch Orbit1831
Epoch Day354.21655399
Epoch Year2025
RAAN223.2334
Inclination97.6017
Eccentricity0.0002691
Argument of Perigee82.6985
Mean Anonmoly277.4548
Mean Motion15.05654681
Decay Rate3.577E-05
L11 65402U 25191Z 25354.21655399 .00003577 00000+0 25192-3 0 9997
L22 65402 97.6017 223.2334 0002691 82.6985 277.4548 15.05654681 18315



Live tracking and technical data element details for STARLINK-34848 (NORAD 65402). STARLINK-34848 can be tracked NOW for your location showing map with azimuth and elevation plus other details from your city location.







IsCatalogInMostPopularTable: catalog: 65402, numindb: 11
Update: records affected: 1



GetName: 65402 STARLINK-34848

Hit Count: updated at: Mon, 20 Apr 2026 09:38:53 GMT